Location: Newark
(48.6676°N, 6.1917°E)
Time: 12:18:40
(UTC+00:00)

N. Korean satellite - Pass Details

Date: 15 December 2019
Orbit: 454 x 508 km, 97.2° (Epoch: 17 January)

Event Time Altitude Azimuth Distance (km) Brightness Sun altitude
Rises 04:26:07 0° 30° (NNE) 2,530 10.5 -27.6°
Reaches altitude 10° 04:29:02 10° 57° (ENE) 1,633 9.9 -27.1°
Maximum altitude 04:30:55 14° 90° (E) 1,399 9.8 -26.8°
Drops below altitude 10° 04:32:47 10° 123° (ESE) 1,612 10.0 -26.5°
Sets 04:35:37 0° 150° (SSE) 2,471 10.6 -26.1°
